Change the Weather History Date:

Tuesday, June 25, 2013

  Actual Average Record
Temperature  
Mean Temperature 74 °F -  
Max Temperature 84 °F 74 °F 93 °F (2001)
Min Temperature 64 °F 54 °F 44 °F (2004)
Cooling Degree Days 9    
Growing Degree Days 24 (Base 50)    
Moisture  
Dew Point 64 °F    
Average Humidity 74    
Maximum Humidity 100    
Minimum Humidity 54    
Precipitation  
Precipitation 0.00 in - - ()
Sea Level Pressure  
Sea Level Pressure 29.77 in    
Wind  
Wind Speed 4 mph (SE)    
Max Wind Speed 13 mph    
Max Gust Speed 18 mph    
Visibility 9 miles    
Events      
Averages and records for this station are not official NWS values.
T = Trace of Precipitation, MM = Missing Value Source: NWS Daily Summary

Daily Weather History Graph

Daily Weather History Graph

Search for Another Location

Airport or City:

Trip Planner

Search our weather history database for the weather conditions in past years. The results will help you decide how hot, cold, wet, or windy it might be!

Date:

Astronomy

Jun. 25, 2013 Rise Set
Actual Time 5:28 AM CDT 9:15 PM CDT
Civil Twilight 4:49 AM CDT 9:54 PM CDT
Nautical Twilight 3:56 AM CDT 10:47 PM CDT
Astronomical Twilight 2:40 AM CDT 12:02 AM CDT
Moon 10:49 PM CDT (6/25) 8:19 AM CDT (6/25)
Length of Visible Light 17h 05m
Length of Day
15h 47m
Waning Gibbous, 92% of the Moon is Illuminated
Jun 25
Waning Gibbous
Jun 29
Last Quarter
Jul 8
New
Jul 15
First Quarter
Jul 22
Full

Hourly Weather History & Observations

Time (CDT) Temp. Heat Index Dew Point Humidity Pressure Visibility Wind Dir Wind Speed Gust Speed Precip Events Conditions
12:13 AM 69.8 °F - 64.4 °F 83% 29.81 in 10.0 mi Calm Calm - N/A   Clear
12:33 AM 68.0 °F - 64.4 °F 88% 29.80 in 10.0 mi Calm Calm - N/A   Clear
12:54 AM 66.2 °F - 64.4 °F 94% 29.80 in 10.0 mi Calm Calm - N/A   Clear
1:13 AM 66.2 °F - 64.4 °F 94% 29.80 in 10.0 mi Calm Calm - N/A   Clear
1:33 AM 66.2 °F - 64.4 °F 94% 29.80 in 10.0 mi SE 3.5 mph - N/A   Clear
1:54 AM 66.2 °F - 64.4 °F 94% 29.81 in 7.0 mi Calm Calm - N/A   Clear
2:13 AM 66.2 °F - 64.4 °F 94% 29.81 in 7.0 mi Calm Calm - N/A   Clear
2:33 AM 66.2 °F - 64.4 °F 94% 29.82 in 5.0 mi Calm Calm - N/A   Scattered Clouds
2:54 AM 64.4 °F - 64.4 °F 100% 29.83 in 2.5 mi SSE 4.6 mph - N/A   Mostly Cloudy
3:13 AM 66.2 °F - 64.4 °F 94% 29.82 in 4.0 mi SE 3.5 mph - N/A   Mostly Cloudy
3:33 AM 66.2 °F - 64.4 °F 94% 29.82 in 5.0 mi SSE 3.5 mph - N/A   Scattered Clouds
3:53 AM 66.2 °F - 64.4 °F 94% 29.81 in 5.0 mi SE 4.6 mph - N/A   Clear
4:13 AM 64.4 °F - 64.4 °F 100% 29.81 in 5.0 mi SSE 3.5 mph - N/A   Clear
4:34 AM 64.4 °F - 64.4 °F 100% 29.80 in 5.0 mi SE 3.5 mph - N/A   Clear
4:53 AM 64.4 °F - 64.4 °F 100% 29.80 in 5.0 mi Calm Calm - N/A   Clear
5:13 AM 64.4 °F - 62.6 °F 94% 29.80 in 5.0 mi Calm Calm - N/A   Clear
5:34 AM 64.4 °F - 62.6 °F 94% 29.80 in 5.0 mi ESE 3.5 mph - N/A   Clear
5:53 AM 64.4 °F - 62.6 °F 94% 29.80 in 4.0 mi Calm Calm - N/A   Clear
6:13 AM 64.4 °F - 62.6 °F 94% 29.79 in 5.0 mi ESE 3.5 mph - N/A   Clear
6:34 AM 64.4 °F - 62.6 °F 94% 29.79 in 7.0 mi Calm Calm - N/A   Clear
6:53 AM 64.4 °F - 62.6 °F 94% 29.79 in 10.0 mi Calm Calm - N/A   Clear
7:13 AM 64.4 °F - 64.4 °F 100% 29.79 in 7.0 mi SE 5.8 mph - N/A   Clear
7:34 AM 66.2 °F - 64.4 °F 94% 29.79 in 10.0 mi SE 4.6 mph - N/A   Clear
7:53 AM 66.2 °F - 64.4 °F 94% 29.79 in 10.0 mi SSE 4.6 mph - N/A   Clear
8:13 AM 68.0 °F - 64.4 °F 88% 29.79 in 10.0 mi SSE 6.9 mph - N/A   Clear
8:33 AM 69.8 °F - 62.6 °F 78% 29.79 in 10.0 mi SSE 6.9 mph - N/A   Clear
8:53 AM 69.8 °F - 64.4 °F 83% 29.79 in 10.0 mi SSE 6.9 mph - N/A   Clear
9:14 AM 71.6 °F - 64.4 °F 78% 29.78 in 10.0 mi SSE 8.1 mph - N/A   Clear
9:33 AM 71.6 °F - 64.4 °F 78% 29.78 in 10.0 mi SSE 10.4 mph - N/A   Clear
9:53 AM 73.4 °F - 64.4 °F 73% 29.78 in 10.0 mi South 9.2 mph - N/A   Clear
10:13 AM 73.4 °F - 64.4 °F 73% 29.79 in 10.0 mi SSE 9.2 mph - N/A   Clear
10:34 AM 75.2 °F - 64.4 °F 69% 29.79 in 10.0 mi South 12.7 mph - N/A   Clear
10:53 AM 75.2 °F - 64.4 °F 69% 29.79 in 10.0 mi SSE 10.4 mph - N/A   Clear
11:14 AM 77.0 °F - 64.4 °F 65% 29.79 in 10.0 mi SSE 9.2 mph - N/A   Clear
11:33 AM 78.8 °F - 64.4 °F 61% 29.79 in 10.0 mi SSE 10.4 mph - N/A   Clear
11:53 AM 78.8 °F - 64.4 °F 61% 29.78 in 10.0 mi SE 10.4 mph 17.3 mph N/A   Clear
12:13 PM 78.8 °F - 62.6 °F 57% 29.78 in 10.0 mi SE 10.4 mph 17.3 mph N/A   Clear
12:34 PM 80.6 °F 81.8 °F 62.6 °F 54% 29.78 in 10.0 mi South 12.7 mph 18.4 mph N/A   Clear
12:53 PM 80.6 °F 82.3 °F 64.4 °F 58% 29.79 in 10.0 mi South 12.7 mph 17.3 mph N/A   Clear
1:13 PM 80.6 °F 82.3 °F 64.4 °F 58% 29.79 in 10.0 mi SSE 10.4 mph - N/A   Scattered Clouds
1:33 PM 82.4 °F 83.9 °F 64.4 °F 54% 29.79 in 10.0 mi South 10.4 mph 16.1 mph N/A   Scattered Clouds
1:53 PM 82.4 °F 83.9 °F 64.4 °F 54% 29.78 in 10.0 mi South 11.5 mph - N/A   Scattered Clouds
2:13 PM 82.4 °F 83.9 °F 64.4 °F 54% 29.78 in 10.0 mi SSE 10.4 mph - N/A   Mostly Cloudy
2:33 PM 82.4 °F 83.9 °F 64.4 °F 54% 29.77 in 10.0 mi SE 6.9 mph - N/A   Scattered Clouds
2:54 PM 82.4 °F 83.9 °F 64.4 °F 54% 29.76 in 10.0 mi SE 8.1 mph - N/A   Clear
3:13 PM 82.4 °F 83.9 °F 64.4 °F 54% 29.76 in 10.0 mi SE 11.5 mph - N/A   Clear
3:33 PM 82.4 °F 83.9 °F 64.4 °F 54% 29.76 in 10.0 mi SE 5.8 mph - N/A   Clear
3:53 PM 82.4 °F 83.9 °F 64.4 °F 54% 29.76 in 10.0 mi SSE 9.2 mph - N/A   Scattered Clouds
4:13 PM 82.4 °F 83.9 °F 64.4 °F 54% 29.75 in 10.0 mi SE 12.7 mph - N/A   Scattered Clouds
4:33 PM 82.4 °F 83.9 °F 64.4 °F 54% 29.76 in 10.0 mi SE 8.1 mph 17.3 mph N/A   Scattered Clouds
4:53 PM 82.4 °F 83.9 °F 64.4 °F 54% 29.75 in 10.0 mi South 9.2 mph - N/A   Scattered Clouds
5:14 PM 84.2 °F 86.6 °F 66.2 °F 55% 29.75 in 10.0 mi South 11.5 mph - N/A   Scattered Clouds
5:33 PM 82.4 °F 83.9 °F 64.4 °F 54% 29.74 in 10.0 mi SE 8.1 mph - N/A   Scattered Clouds
5:53 PM 82.4 °F 83.9 °F 64.4 °F 54% 29.74 in 10.0 mi SE 6.9 mph - N/A   Clear
6:14 PM 82.4 °F 83.9 °F 64.4 °F 54% 29.74 in 10.0 mi SE 10.4 mph - N/A   Clear
6:33 PM 82.4 °F 83.9 °F 64.4 °F 54% 29.74 in 10.0 mi SE 9.2 mph - N/A   Clear
6:53 PM 82.4 °F 83.9 °F 64.4 °F 54% 29.74 in 10.0 mi SSE 10.4 mph - N/A   Clear
7:14 PM 82.4 °F 84.6 °F 66.2 °F 58% 29.73 in 10.0 mi SE 8.1 mph - N/A   Clear
7:33 PM 80.6 °F 82.7 °F 66.2 °F 61% 29.73 in 10.0 mi SE 8.1 mph - N/A   Clear
7:53 PM 80.6 °F 82.3 °F 64.4 °F 58% 29.72 in 10.0 mi SE 5.8 mph - N/A   Clear
8:14 PM 78.8 °F - 64.4 °F 61% 29.71 in 10.0 mi SE 5.8 mph - N/A   Clear
8:33 PM 78.8 °F - 64.4 °F 61% 29.70 in 10.0 mi SE 4.6 mph - N/A   Clear
8:53 PM 75.2 °F - 66.2 °F 73% 29.70 in 10.0 mi SE 4.6 mph - N/A   Clear
9:13 PM 75.2 °F - 66.2 °F 73% 29.71 in 10.0 mi SE 3.5 mph - N/A   Clear
9:34 PM 75.2 °F - 64.4 °F 69% 29.71 in 10.0 mi Calm Calm - N/A   Clear
9:53 PM 73.4 °F - 64.4 °F 73% 29.71 in 10.0 mi Calm Calm - N/A   Clear
10:13 PM 73.4 °F - 64.4 °F 73% 29.72 in 10.0 mi SE 3.5 mph - N/A   Clear
10:34 PM 73.4 °F - 64.4 °F 73% 29.73 in 10.0 mi Calm Calm - N/A   Clear
10:53 PM 73.4 °F - 64.4 °F 73% 29.72 in 10.0 mi SE 3.5 mph - N/A   Clear
11:13 PM 73.4 °F - 64.4 °F 73% 29.71 in 10.0 mi SE 3.5 mph - N/A   Clear
11:33 PM 73.4 °F - 64.4 °F 73% 29.70 in 10.0 mi SE 3.5 mph - N/A   Clear
11:53 PM 71.6 °F - 66.2 °F 83% 29.71 in 10.0 mi Calm Calm - N/A   Clear